Location: C�mpuri de-Sus
(45.9500°N, 22.5500°E)
Time: 01:48:00
(UTC+00:00)

Cosmos 839 Rocket - Pass Details

Date: 30 May 2022
Orbit: 968 x 2085 km, 65.9° (Epoch: 06 July)

Event Time Altitude Azimuth Distance (km) Brightness Sun altitude
Rises 21:07:39 0° 327° (NNW) 3,673 8.5 -19.8°
Reaches altitude 10° 21:10:17 10° 335° (NNW) 2,751 7.6 -20.0°
Maximum altitude 21:16:12 40° 45° (NE) 1,511 5.2 -20.3°
Enters shadow 21:22:08 13° 111° (ESE) 2,870 6.1 -20.6°
